Weather History for Bangkok (Don Mueang), Thailand

Change the Weather History Date:

Tuesday, October 16, 2012

  Actual Average Record
Temperature  
Mean Temperature 84 °F -  
Max Temperature 90 °F 88 °F 98 °F (1996)
Min Temperature 77 °F 75 °F 75 °F (1999)
Cooling Degree Days 18    
Growing Degree Days 34 (Base 50)    
Moisture  
Dew Point 75 °F    
Average Humidity 78    
Maximum Humidity 94    
Minimum Humidity 53    
Precipitation  
Precipitation 0.24 in 0.14 in - ()
Sea Level Pressure  
Sea Level Pressure 29.88 in    
Wind  
Wind Speed 1 mph ()    
Max Wind Speed 12 mph    
Max Gust Speed -    
Visibility 4.9 miles    
Events Rain , Thunderstorm    
Averages and records for this station are not official NWS values.
T = Trace of Precipitation, MM = Missing Value Source: Averaged Metar Reports

Daily Weather History Graph

Daily Weather History Graph

Search for Another Location

Airport:

Trip Planner

Search our weather history database for the weather conditions in past years. The results will help you decide how hot, cold, wet, or windy it might be!

Date:

Astronomy

Oct. 16, 2012 Rise Set
Actual Time 6:08 AM ICT 5:57 PM ICT
Civil Twilight 5:47 AM ICT 6:18 PM ICT
Nautical Twilight 5:22 AM ICT 6:43 PM ICT
Astronomical Twilight 4:57 AM ICT 7:08 PM ICT
Moon 6:39 AM ICT (10/16) 6:35 PM ICT (10/16)
Length of Visible Light 12h 31m
Length of Day
11h 48m
New Moon, 1% of the Moon is Illuminated
Oct 16
New Moon
Oct 22
First Quarter
Oct 30
Full
Nov 7
Last Quarter
Nov 14
New

Hourly Weather History & Observations

Time (ICT) Temp. Heat Index Dew Point Humidity Pressure Visibility Wind Dir Wind Speed Gust Speed Precip Events Conditions
12:00 AM 80.6 °F 86.2 °F 75.2 °F 84% 29.89 in 5.0 mi Calm Calm - N/A   Mostly Cloudy
12:30 AM 80.6 °F 86.2 °F 75.2 °F 84% 29.89 in 5.0 mi Calm Calm - N/A   Mostly Cloudy
1:00 AM 80.6 °F 86.2 °F 75.2 °F 84% 29.89 in 4.3 mi Calm Calm - N/A   Mostly Cloudy
1:30 AM 80.6 °F 86.2 °F 75.2 °F 84% 29.89 in 4.3 mi Calm Calm - N/A   Mostly Cloudy
2:00 AM 80.6 °F 86.2 °F 75.2 °F 84% 29.89 in 4.3 mi Calm Calm - N/A   Mostly Cloudy
2:30 AM 80.6 °F 86.2 °F 75.2 °F 84% 29.89 in 4.3 mi ENE 3.5 mph - N/A   Mostly Cloudy
3:00 AM 80.6 °F 87.1 °F 77.0 °F 89% 29.89 in 4.3 mi Calm Calm - N/A Rain Light Rain
3:30 AM 80.6 °F 87.1 °F 77.0 °F 89% 29.86 in 4.3 mi Calm Calm - N/A Rain Light Rain
4:00 AM 80.6 °F 87.1 °F 77.0 °F 89% 29.86 in 4.3 mi Calm Calm - N/A   Mostly Cloudy
4:30 AM 80.6 °F 87.1 °F 77.0 °F 89% 29.86 in 4.3 mi Calm Calm - N/A   Mostly Cloudy
5:00 AM 80.6 °F 87.1 °F 77.0 °F 89% 29.89 in 4.3 mi Calm Calm - N/A   Mostly Cloudy
5:30 AM 80.6 °F 87.1 °F 77.0 °F 89% 29.89 in 3.7 mi Calm Calm - N/A   Mostly Cloudy
6:00 AM 78.8 °F - 75.2 °F 89% 29.89 in 3.1 mi Calm Calm - N/A   Mostly Cloudy
6:30 AM 78.8 °F - 75.2 °F 89% 29.89 in 3.1 mi Calm Calm - N/A   Mostly Cloudy
7:00 AM 80 °F - 76 °F 82% 29.92 in 3 mi Calm Calm - -   Mist
7:00 AM 80.6 °F 86.2 °F 75.2 °F 84% 29.92 in 3.1 mi Calm Calm - N/A   Mostly Cloudy
7:30 AM 80.6 °F 86.2 °F 75.2 °F 84% 29.92 in 3.7 mi Calm Calm - N/A   Mostly Cloudy
8:00 AM 80.6 °F 87.1 °F 77.0 °F 89% 29.92 in 4.3 mi Calm Calm - N/A   Mostly Cloudy
8:30 AM 84.2 °F 94.1 °F 77.0 °F 79% 29.92 in 4.3 mi Calm Calm - N/A   Mostly Cloudy
9:00 AM 86.0 °F 96.9 °F 77.0 °F 74% 29.95 in 4.3 mi Calm Calm - N/A   Mostly Cloudy
9:30 AM 84.2 °F 92.3 °F 75.2 °F 74% 29.95 in 4.3 mi Calm Calm - N/A   Mostly Cloudy
10:00 AM 86.0 °F 95.1 °F 75.2 °F 70% 29.95 in 4.3 mi Calm Calm - N/A   Mostly Cloudy
10:30 AM 87.8 °F 97.6 °F 75.2 °F 66% 29.92 in 4.3 mi Calm Calm - N/A   Mostly Cloudy
11:00 AM 87.8 °F 95.6 °F 73.4 °F 62% 29.92 in 5.0 mi Calm Calm - N/A   Mostly Cloudy
11:30 AM 89.6 °F 99.8 °F 75.2 °F 62% 29.92 in 5.0 mi Calm Calm - N/A   Mostly Cloudy
12:00 PM 89.6 °F 98.2 °F 73.4 °F 59% 29.89 in 5.0 mi Calm Calm - N/A   Mostly Cloudy
12:30 PM 89.6 °F 99.8 °F 75.2 °F 62% 29.86 in 5.0 mi Calm Calm - N/A   Mostly Cloudy
1:00 PM 90 °F - 75 °F 53% 29.87 in 6 mi Calm Calm - -   Haze
1:00 PM 89.6 °F 99.8 °F 75.2 °F 62% 29.86 in 6.2 mi Calm Calm - N/A   Mostly Cloudy
1:30 PM 91.4 °F 102.5 °F 75.2 °F 59% 29.83 in 6.2 mi NNE 4.6 mph - N/A   Mostly Cloudy
2:00 PM 87.8 °F 95.6 °F 73.4 °F 62% 29.83 in 5.0 mi SSW 10.4 mph - N/A Thunderstorm Thunderstorm
2:30 PM 80.6 °F 85.4 °F 73.4 °F 79% 29.83 in 2.5 mi SSW 11.5 mph - N/A Rain , Thunderstorm Thunderstorms and Rain
3:00 PM 77.0 °F - 75.2 °F 94% 29.83 in 4.3 mi SSW 11.5 mph - N/A Rain , Thunderstorm Light Thunderstorms and Rain
3:30 PM 78.8 °F - 75.2 °F 89% 29.83 in - Calm Calm - N/A   Mostly Cloudy
4:00 PM 82.4 °F 89.5 °F 75.2 °F 79% 29.80 in - Calm Calm - N/A   Mostly Cloudy
4:30 PM 84.2 °F 90.9 °F 73.4 °F 70% 29.80 in 6.2 mi Calm Calm - N/A   Mostly Cloudy
5:00 PM 84.2 °F 90.9 °F 73.4 °F 70% 29.80 in 6.2 mi Calm Calm - N/A   Mostly Cloudy
5:30 PM 84.2 °F 90.9 °F 73.4 °F 70% 29.83 in 6.2 mi Calm Calm - N/A   Mostly Cloudy
6:00 PM 84.2 °F 89.6 °F 71.6 °F 66% 29.83 in 6.2 mi WSW 2.3 mph - N/A   Mostly Cloudy
6:30 PM 82.4 °F 88.2 °F 73.4 °F 74% 29.83 in 6.2 mi Calm Calm - N/A   Mostly Cloudy
7:00 PM 82 °F - 73 °F 69% 29.85 in 6 mi Calm Calm - -   Scattered Clouds
7:00 PM 84.2 °F 90.9 °F 73.4 °F 70% 29.83 in 6.2 mi Calm Calm - N/A   Mostly Cloudy
7:30 PM 82.4 °F 88.2 °F 73.4 °F 74% 29.86 in 6.2 mi Calm Calm - N/A   Mostly Cloudy
8:00 PM 82.4 °F 88.2 °F 73.4 °F 74% 29.86 in 6.2 mi Calm Calm - N/A   Mostly Cloudy
8:30 PM 82.4 °F 89.5 °F 75.2 °F 79% 29.86 in 6.2 mi Calm Calm - N/A   Mostly Cloudy
9:00 PM 82.4 °F 90.9 °F 77.0 °F 84% 29.89 in 5.6 mi Calm Calm - N/A   Mostly Cloudy
9:30 PM 82.4 °F 90.9 °F 77.0 °F 84% 29.89 in 5.6 mi Calm Calm - N/A   Mostly Cloudy
10:00 PM 82.4 °F 90.9 °F 77.0 °F 84% 29.89 in 5.6 mi Calm Calm - N/A   Mostly Cloudy
10:30 PM 82.4 °F 90.9 °F 77.0 °F 84% 29.89 in 5.6 mi Calm Calm - N/A   Mostly Cloudy
11:00 PM 82.4 °F 90.9 °F 77.0 °F 84% 29.89 in 5.6 mi Calm Calm - N/A   Mostly Cloudy
11:30 PM 82.4 °F 90.9 °F 77.0 °F 84% 29.89 in 5.6 mi Calm Calm - N/A   Mostly Cloudy